Hourly Weather Rudi

Today, 3 August, Tuesday

Time Temperature Precipitation Wind Pressure Humidity
00:00 +18°C° 0 mm 3 mps 738 mmHg 85%
01:00 +18°C° 0 mm 3 mps 739 mmHg 85%
02:00 +17°C° 0 mm 2 mps 739 mmHg 86%
03:00 +16°C° 0 mm 2 mps 739 mmHg 88%
04:00 +16°C° 0 mm 2 mps 739 mmHg 89%
05:00 +15°C° 0 mm 2 mps 739 mmHg 90%
06:00 +17°C° 0 mm 2 mps 740 mmHg 84%
07:00 +18°C° 0 mm 2 mps 740 mmHg 77%
08:00 +20°C° 0 mm 2 mps 740 mmHg 71%
09:00 +21°C° 0 mm 2 mps 740 mmHg 65%
10:00 +23°C° 0 mm 2 mps 741 mmHg 58%
11:00 +25°C° 0 mm 2 mps 741 mmHg 52%
12:00 +26°C° 0 mm 2 mps 741 mmHg 49%
13:00 +26°C° 0 mm 2 mps 740 mmHg 46%
14:00 +27°C° 0 mm 2 mps 740 mmHg 43%
15:00 +26°C° 0 mm 2 mps 740 mmHg 46%
16:00 +26°C° 0 mm 2 mps 740 mmHg 48%
17:00 +25°C° 0 mm 2 mps 740 mmHg 51%
18:00 +24°C° 0 mm 2 mps 740 mmHg 55%
19:00 +23°C° 0 mm 2 mps 740 mmHg 59%
20:00 +21°C° 0 mm 1 mps 741 mmHg 63%
21:00 +21°C° 0 mm 1 mps 741 mmHg 63%
22:00 +20°C° 0 mm 1 mps 741 mmHg 64%
23:00 +20°C° 0 mm 1 mps 741 mmHg 65%

Tomorrow, 4 August, Wednesday

Time Temperature Precipitation Wind Pressure Humidity
00:00 +19°C° 0 mm 1 mps 741 mmHg 66%
01:00 +19°C° 0 mm 1 mps 741 mmHg 67%
02:00 +19°C° 0 mm 1 mps 741 mmHg 69%
03:00 +18°C° 0 mm 1 mps 741 mmHg 70%
04:00 +18°C° 0 mm 1 mps 741 mmHg 71%
05:00 +18°C° 0 mm 1 mps 741 mmHg 72%
06:00 +18°C° 0 mm 2 mps 741 mmHg 68%
07:00 +20°C° 0 mm 2 mps 741 mmHg 64%
08:00 +23°C° 0 mm 2 mps 742 mmHg 60%
09:00 +24°C° 0 mm 3 mps 742 mmHg 56%
10:00 +25°C° 0 mm 3 mps 742 mmHg 52%
11:00 +27°C° 0 mm 4 mps 741 mmHg 48%
12:00 +28°C° 0 mm 4 mps 741 mmHg 47%
13:00 +28°C° 0 mm 4 mps 741 mmHg 46%
14:00 +29°C° 0 mm 4 mps 740 mmHg 45%
15:00 +29°C° 0 mm 4 mps 740 mmHg 46%
16:00 +29°C° 0 mm 3 mps 740 mmHg 47%
17:00 +29°C° 0 mm 3 mps 740 mmHg 48%
18:00 +27°C° 0 mm 3 mps 739 mmHg 54%
19:00 +26°C° 0 mm 2 mps 739 mmHg 59%
20:00 +24°C° 0 mm 2 mps 739 mmHg 65%
21:00 +23°C° 0.7 mm 2 mps 739 mmHg 72%
22:00 +21°C° 0.7 mm 2 mps 739 mmHg 78%
23:00 +20°C° 0.7 mm 3 mps 739 mmHg 84%

Day after tomorrow, 5 August, Thursday

Time Temperature Precipitation Wind Pressure Humidity
00:00 +19°C° 1 mm 2 mps 739 mmHg 87%
01:00 +19°C° 1 mm 2 mps 739 mmHg 90%
02:00 +18°C° 1 mm 2 mps 738 mmHg 93%
03:00 +18°C° 0.2 mm 2 mps 738 mmHg 94%
04:00 +18°C° 0.2 mm 2 mps 738 mmHg 94%
05:00 +18°C° 0.2 mm 2 mps 738 mmHg 94%
06:00 +19°C° 0 mm 3 mps 738 mmHg 89%
07:00 +21°C° 0 mm 4 mps 737 mmHg 84%
08:00 +22°C° 0 mm 5 mps 737 mmHg 78%
09:00 +25°C° 0 mm 5 mps 737 mmHg 72%
10:00 +27°C° 0 mm 5 mps 737 mmHg 66%
11:00 +28°C° 0 mm 5 mps 737 mmHg 60%
12:00 +29°C° 0 mm 5 mps 736 mmHg 55%
13:00 +32°C° 0 mm 5 mps 736 mmHg 50%
14:00 +33°C° 0 mm 5 mps 735 mmHg 46%
15:00 +33°C° 0 mm 6 mps 735 mmHg 45%
16:00 +33°C° 0 mm 6 mps 734 mmHg 45%
17:00 +33°C° 0 mm 7 mps 733 mmHg 45%
18:00 +29°C° 1.1 mm 7 mps 733 mmHg 55%
19:00 +27°C° 1.1 mm 7 mps 733 mmHg 64%
20:00 +23°C° 1.1 mm 6 mps 733 mmHg 73%
21:00 +22°C° 2.9 mm 5 mps 733 mmHg 80%
22:00 +21°C° 2.9 mm 5 mps 733 mmHg 87%
23:00 +20°C° 2.9 mm 4 mps 733 mmHg 94%

6 August, Friday

Time Temperature Precipitation Wind Pressure Humidity
00:00 +20°C° 0.1 mm 4 mps 733 mmHg 94%
01:00 +20°C° 0.1 mm 4 mps 733 mmHg 94%
02:00 +20°C° 0.1 mm 4 mps 732 mmHg 94%
03:00 +20°C° 0 mm 3 mps 732 mmHg 95%
04:00 +20°C° 0 mm 3 mps 732 mmHg 95%
05:00 +20°C° 0 mm 3 mps 732 mmHg 95%
06:00 +21°C° 0.1 mm 3 mps 732 mmHg 92%
07:00 +21°C° 0.1 mm 3 mps 732 mmHg 89%
08:00 +22°C° 0.1 mm 3 mps 732 mmHg 86%
09:00 +25°C° 0.1 mm 3 mps 732 mmHg 78%
10:00 +26°C° 0.1 mm 2 mps 732 mmHg 70%
11:00 +27°C° 0.1 mm 2 mps 732 mmHg 61%
12:00 +28°C° 0.1 mm 2 mps 732 mmHg 58%
13:00 +28°C° 0.1 mm 2 mps 732 mmHg 54%
14:00 +29°C° 0.1 mm 2 mps 732 mmHg 51%
15:00 +29°C° 0 mm 2 mps 732 mmHg 52%
16:00 +29°C° 0 mm 2 mps 732 mmHg 53%
17:00 +29°C° 0 mm 3 mps 732 mmHg 54%
18:00 +26°C° 1.3 mm 3 mps 732 mmHg 66%
19:00 +22°C° 1.3 mm 3 mps 732 mmHg 79%
20:00 +20°C° 1.3 mm 3 mps 732 mmHg 91%
21:00 +19°C° 0.9 mm 2 mps 733 mmHg 91%
22:00 +19°C° 0.9 mm 2 mps 733 mmHg 92%
23:00 +20°C° 0.9 mm 1 mps 734 mmHg 92%

7 August, Saturday

Time Temperature Precipitation Wind Pressure Humidity
00:00 +18°C° 0 mm 2 mps 734 mmHg 93%
01:00 +18°C° 0 mm 3 mps 734 mmHg 93%
02:00 +17°C° 0 mm 4 mps 734 mmHg 93%
03:00 +17°C° 0 mm 4 mps 734 mmHg 93%
04:00 +15°C° 0 mm 4 mps 734 mmHg 93%
05:00 +14°C° 0 mm 4 mps 735 mmHg 93%
06:00 +15°C° 0 mm 4 mps 735 mmHg 88%
07:00 +16°C° 0 mm 5 mps 735 mmHg 83%
08:00 +17°C° 0 mm 5 mps 736 mmHg 79%
09:00 +19°C° 0 mm 5 mps 736 mmHg 71%
10:00 +20°C° 0 mm 5 mps 736 mmHg 64%
11:00 +22°C° 0 mm 6 mps 736 mmHg 57%
12:00 +22°C° 0 mm 5 mps 737 mmHg 55%
13:00 +23°C° 0 mm 5 mps 737 mmHg 52%
14:00 +25°C° 0 mm 5 mps 737 mmHg 50%
15:00 +25°C° 0 mm 5 mps 737 mmHg 52%
16:00 +23°C° 0 mm 5 mps 737 mmHg 54%
17:00 +23°C° 0 mm 5 mps 737 mmHg 56%
18:00 +22°C° 0 mm 4 mps 737 mmHg 62%
19:00 +20°C° 0 mm 3 mps 738 mmHg 67%
20:00 +19°C° 0 mm 2 mps 738 mmHg 73%
21:00 +18°C° 0 mm 2 mps 738 mmHg 75%
22:00 +18°C° 0 mm 2 mps 739 mmHg 77%
23:00 +17°C° 0 mm 2 mps 739 mmHg 80%

8 August, Sunday

Time Temperature Precipitation Wind Pressure Humidity
00:00 +17°C° 0 mm 2 mps 739 mmHg 81%
01:00 +16°C° 0 mm 2 mps 740 mmHg 81%
02:00 +16°C° 0 mm 2 mps 740 mmHg 82%
03:00 +16°C° 0 mm 2 mps 740 mmHg 83%
04:00 +15°C° 0 mm 2 mps 740 mmHg 83%
05:00 +15°C° 0 mm 2 mps 740 mmHg 84%
06:00 +17°C° 0 mm 2 mps 741 mmHg 77%
07:00 +19°C° 0 mm 2 mps 741 mmHg 70%
08:00 +20°C° 0 mm 2 mps 741 mmHg 64%
09:00 +23°C° 0 mm 2 mps 741 mmHg 58%
10:00 +24°C° 0 mm 2 mps 742 mmHg 52%
11:00 +26°C° 0 mm 2 mps 742 mmHg 46%
12:00 +27°C° 0 mm 2 mps 742 mmHg 45%
13:00 +27°C° 0 mm 3 mps 742 mmHg 43%
14:00 +28°C° 0 mm 3 mps 742 mmHg 42%
15:00 +28°C° 0 mm 2 mps 742 mmHg 42%
16:00 +28°C° 0 mm 2 mps 742 mmHg 42%
17:00 +28°C° 0 mm 2 mps 742 mmHg 43%
18:00 +26°C° 0 mm 1 mps 742 mmHg 48%
19:00 +25°C° 0 mm 1 mps 742 mmHg 53%
20:00 +23°C° 0 mm 1 mps 742 mmHg 58%
21:00 +22°C° 0 mm 1 mps 743 mmHg 59%
22:00 +22°C° 0 mm 1 mps 743 mmHg 60%
23:00 +19°C° 0 mm 0 mps 743 mmHg 61%
Show more

We Need Your Consent

Meteoprog and our Service Providers may store and access personal data such as cookies, device identifiers or other similar technologies on your device and process such data to personalise content and ads, as well as provide social media features and to analyse the traffic.

  • Store and/or access information on your device

    Cookies, device identifiers or other information can be stored or accessed on your device for the purposes indicated above.

  • Personalised ads and content, ad and content measurement, audience insights, and products development

    Ads and content can be personalised based on a profile. More data can be added to better personalise ads and content. Ad and content performance can be measured. Insights about the audience who saw the ads and content can be derived. Such data can be used to develop or improve user’s experience, systems and software.

By clicking ‘I Agree’ you will allow the use of indicated cookies, device identifiers, web beacons or other similar technologies. Your settings can be changed in the browser on your device.

For certain purposes, legitimate interests may be relied on, rather than consent. You can read more about this in our Privacy and Cookie Policy.